GW5725 Weather Reports


time (UTC)temp
F
wind
direction
speed
knots
gust
knots
rain 1hr
in
rain 24hr
in
rain mn
in
humidity
%
barometer
mb
20260504012515 58 147 0.0 1.7 0.00 0.00 0.00 55 1016.4
20260504012005 59 138 0.0 0.9 0.00 0.00 0.00 54 1016.4
20260504011507 59 138 0.0 1.7 0.00 0.00 0.00 53 1016.4
20260504011004 59 138 0.0 1.7 0.00 0.00 0.00 52 1016.4
20260504010513 59 138 0.0 0.9 0.00 0.00 0.00 51 1016.4
20260504010013 60 138 0.0 0.9 0.00 0.00 0.00 50 1016.4
20260504005508 60 138 0.0 0.0 0.00 0.00 0.00 49 1016.4
20260504005006 60 138 0.0 0.0 0.00 0.00 0.00 48 1016.4
20260504004517 61 138 0.0 0.0 0.00 0.00 0.00 47 1016.3
20260504004008 61 138 0.0 0.0 0.00 0.00 0.00 46 1016.1
20260504003511 62 138 0.0 0.0 0.00 0.00 0.00 46 1016.1
20260504003022 62 138 0.0 0.0 0.00 0.00 0.00 45 1016.1
20260504002508 63 138 0.0 1.7 0.00 0.00 0.00 44 1016.0
20260504002010 63 138 0.0 1.7 0.00 0.00 0.00 44 1016.0
20260504001525 63 138 0.0 0.0 0.00 0.00 0.00 43 1015.9
20260504001007 64 136 0.0 1.7 0.00 0.00 0.00 42 1015.9
20260504000504 64 136 0.0 1.7 0.00 0.00 0.00 41 1015.9
20260504000018 64 136 0.0 1.7 0.00 0.00 0.00 42 1015.8
20260503235509 64 136 0.0 1.7 0.00 0.00 0.00 41 1015.8
20260503235007 65 136 0.0 1.7 0.00 0.00 0.00 42 1015.8
20260503234516 65 262 0.0 1.7 0.00 0.00 0.00 40 1015.9
20260503234008 65 271 0.0 1.7 0.00 0.00 0.00 40 1015.8
20260503233507 65 271 0.0 1.7 0.00 0.00 0.00 40 1015.8
20260503233024 65 98 0.0 1.7 0.00 0.00 0.00 40 1015.8
20260503232510 66 340 0.9 2.6 0.00 0.00 0.00 40 1015.9
20260503232009 66 329 0.0 2.6 0.00 0.00 0.00 39 1015.9
20260503231524 66 287 0.0 1.7 0.00 0.00 0.00 38 1015.9
20260503231009 66 346 0.0 1.7 0.00 0.00 0.00 39 1016.0
20260503230509 66 221 0.0 1.7 0.00 0.00 0.00 39 1016.0
20260503230026 66 207 0.0 2.6 0.00 0.00 0.00 40 1016.0
20260503225508 66 209 0.9 4.3 0.00 0.00 0.00 38 1016.0
20260503225007 66 165 0.9 4.3 0.00 0.00 0.00 41 1016.0
20260503224512 67 292 0.9 6.1 0.00 0.00 0.00 38 1015.9
20260503224009 67 259 1.7 6.1 0.00 0.00 0.00 38 1016.0
20260503223507 68 346 1.7 4.3 0.00 0.00 0.00 36 1016.1
20260503223020 68 22 0.9 4.3 0.00 0.00 0.00 38 1016.1
20260503222509 68 99 0.0 4.3 0.00 0.00 0.00 37 1016.1
20260503222009 68 226 0.9 4.3 0.00 0.00 0.00 37 1016.1
20260503221524 68 352 0.0 3.5 0.00 0.00 0.00 39 1016.1
20260503221011 68 348 1.7 3.5 0.00 0.00 0.00 38 1016.2
20260503220511 69 266 0.9 2.6 0.00 0.00 0.00 37 1016.2
20260503220027 69 296 0.9 5.2 0.00 0.00 0.00 35 1016.2
20260503215510 68 117 0.9 5.2 0.00 0.00 0.00 37 1016.2
20260503215012 68 63 0.9 5.2 0.00 0.00 0.00 38 1016.3
20260503214522 68 360 0.9 5.2 0.00 0.00 0.00 37 1016.3
20260503214007 68 333 0.9 4.3 0.00 0.00 0.00 36 1016.3
20260503213512 69 346 0.9 3.5 0.00 0.00 0.00 37 1016.3
20260503213017 69 167 0.9 3.5 0.00 0.00 0.00 35 1016.3
20260503212508 69 198 0.9 3.5 0.00 0.00 0.00 36 1016.3
20260503212011 69 227 2.6 3.5 0.00 0.00 0.00 37 1016.3
20260503211524 69 127 0.9 5.2 0.00 0.00 0.00 35 1016.4
20260503211010 69 32 0.9 5.2 0.00 0.00 0.00 35 1016.4
20260503210510 69 86 1.7 4.3 0.00 0.00 0.00 35 1016.5
20260503210042 69 275 0.0 4.3 0.00 0.00 0.00 36 1016.6
20260503205516 69 214 1.7 4.3 0.00 0.00 0.00 36 1016.6
20260503205015 69 225 0.0 3.5 0.00 0.00 0.00 36 1016.7
20260503204525 69 225 0.9 4.3 0.00 0.00 0.00 36 1016.9
20260503204015 69 346 2.6 9.6 0.00 0.00 0.00 35 1016.9
20260503203506 69 206 1.7 9.6 0.00 0.00 0.00 36 1016.9
20260503203015 69 149 1.7 5.2 0.00 0.00 0.00 35 1017.0
20260503202508 69 256 1.7 5.2 0.00 0.00 0.00 36 1017.1
20260503202012 69 236 0.9 5.2 0.00 0.00 0.00 37 1017.2
20260503201524 69 187 0.9 6.1 0.00 0.00 0.00 35 1017.2
20260503201010 69 174 1.7 6.1 0.00 0.00 0.00 35 1017.3
20260503200513 69 233 0.9 7.8 0.00 0.00 0.00 40 1017.5
20260503200026 68 222 1.7 7.8 0.00 0.00 0.00 37 1017.5
20260503195509 68 162 1.7 7.8 0.00 0.00 0.00 40 1017.6
20260503195013 68 303 3.5 10.4 0.00 0.00 0.00 37 1017.6
20260503194528 68 302 2.6 10.4 0.00 0.00 0.00 39 1017.7
20260503194012 68 167 2.6 9.6 0.00 0.00 0.00 37 1017.7
20260503193508 68 128 2.6 7.0 0.00 0.00 0.00 39 1017.9
20260503193032 67 61 0.9 7.8 0.00 0.00 0.00 38 1017.9
20260503192508 68 320 2.6 7.8 0.00 0.00 0.00 40 1018.0
20260503192008 68 171 0.9 3.5 0.00 0.00 0.00 38 1018.1
20260503191519 68 9 0.9 5.2 0.00 0.00 0.00 37 1018.2
20260503191009 67 321 1.7 5.2 0.00 0.00 0.00 38 1018.2
20260503190512 67 282 2.6 5.2 0.00 0.00 0.00 39 1018.3
20260503190023 68 350 1.7 5.2 0.00 0.00 0.00 39 1018.4
20260503185508 67 211 0.9 8.7 0.00 0.00 0.00 42 1018.5
20260503185016 67 111 1.7 8.7 0.00 0.00 0.00 42 1018.5
20260503184529 67 120 1.7 7.0 0.00 0.00 0.00 36 1018.6
20260503184013 67 232 0.9 3.5 0.00 0.00 0.00 43 1018.6
20260503183515 67 352 0.9 3.5 0.00 0.00 0.00 38 1018.6
20260503183027 66 145 1.7 4.3 0.00 0.00 0.00 39 1018.7
20260503182507 66 171 0.9 7.8 0.00 0.00 0.00 41 1018.8
20260503182010 66 150 1.7 7.8 0.00 0.00 0.00 40 1018.8
20260503181518 66 164 1.7 5.2 0.00 0.00 0.00 39 1018.8
20260503181007 66 154 1.7 7.8 0.00 0.00 0.00 38 1018.8
20260503180508 65 234 3.5 7.8 0.00 0.00 0.00 42 1018.7
20260503180020 65 159 1.7 7.0 0.00 0.00 0.00 39 1018.8
20260503175507 65 10 0.9 7.0 0.00 0.00 0.00 40 1018.8
20260503175013 64 333 3.5 7.0 0.00 0.00 0.00 38 1018.8
20260503174525 64 46 1.7 5.2 0.00 0.00 0.00 39 1018.8
20260503174015 64 167 0.9 7.8 0.00 0.00 0.00 39 1018.9
20260503173509 64 346 4.3 7.8 0.00 0.00 0.00 38 1019.1
20260503173036 64 92 2.6 6.1 0.00 0.00 0.00 41 1019.1
20260503172509 64 337 1.7 5.2 0.00 0.00 0.00 40 1019.3
20260503172014 65 214 2.6 5.2 0.00 0.00 0.00 40 1019.4
20260503171528 64 251 1.7 4.3 0.00 0.00 0.00 45 1019.5
20260503171008 63 205 1.7 4.3 0.00 0.00 0.00 41 1019.5
20260503170516 63 155 1.7 6.1 0.00 0.00 0.00 38 1019.7
20260503151010 60 89 2.6 5.2 0.00 0.00 0.00 46 1020.5
20260503150511 59 92 1.7 3.5 0.00 0.00 0.00 47 1020.5
20260503131004 55 88 0.9 6.1 0.00 0.00 0.00 56 1020.2
20260503130506 55 105 1.7 4.3 0.00 0.00 0.00 55 1020.2
20260503110510 41 305 0.0 0.9 0.00 0.00 0.00 86 1019.3
20260503090508 43 313 0.0 0.0 0.00 0.00 0.00 81 1018.0
20260503081535 43 313 0.0 0.0 0.00 0.01 0.00 80 1017.5
20260503081007 43 313 0.0 0.0 0.00 0.01 0.00 79 1017.5
20260503080510 43 313 0.0 0.0 0.00 0.01 0.00 79 1017.5
20260503072504 44 313 0.0 0.0 0.00 0.01 0.00 77 1017.1
20260503072006 45 313 0.0 0.0 0.00 0.01 0.00 77 1017.1
20260503071533 45 313 0.0 0.9 0.00 0.01 0.00 77 1017.0
20260503071013 45 313 0.0 0.9 0.00 0.01 0.00 76 1017.0
20260503070511 45 313 0.0 0.0 0.00 0.01 0.00 76 1016.9
20260503055011 47 313 0.0 0.0 0.00 0.01 0.00 70 1016.8
20260503054534 47 312 0.0 0.0 0.00 0.01 0.00 72 1016.8
20260503054011 47 314 0.0 0.0 0.00 0.01 0.00 69 1016.8
20260503053508 47 314 0.0 1.7 0.00 0.01 0.00 69 1016.8
20260503053026 47 313 0.0 1.7 0.00 0.01 0.00 69 1016.8
20260503052514 47 313 0.0 1.7 0.00 0.01 0.00 67 1016.8
20260503052013 47 317 0.0 1.7 0.00 0.01 0.00 66 1016.7
20260503051531 47 316 0.0 1.7 0.00 0.01 0.00 66 1016.7
20260503051006 47 317 0.0 1.7 0.00 0.01 0.00 65 1016.7
20260503050507 48 317 0.0 1.7 0.00 0.01 0.00 65 1016.6
20260503050016 48 317 0.0 1.7 0.00 0.01 0.00 65 1016.6
20260503045506 48 316 0.0 1.7 0.00 0.01 0.00 65 1016.6
20260503045015 48 313 0.0 1.7 0.00 0.01 0.00 64 1016.6
20260503044536 48 312 0.0 1.7 0.00 0.01 0.00 63 1016.6
20260503044012 49 312 0.0 1.7 0.00 0.01 0.00 63 1016.7
20260503043511 49 312 0.0 1.7 0.00 0.01 0.00 63 1016.6
20260503043026 49 312 0.0 1.7 0.00 0.01 0.00 61 1016.7
20260503042509 49 312 0.0 0.9 0.00 0.01 0.00 62 1016.6
20260503042014 49 312 0.0 0.9 0.00 0.01 0.00 61 1016.6
20260503041528 49 312 0.0 0.0 0.00 0.01 0.00 61 1016.6
20260503041009 49 312 0.0 0.0 0.00 0.01 0.00 60 1016.4
20260503040511 50 312 0.0 0.0 0.00 0.01 0.00 59 1016.3
20260503040014 50 312 0.0 1.7 0.00 0.01 0.00 60 1016.3
20260503035506 50 312 0.0 1.7 0.00 0.01 0.01 59 1016.2
20260503035009 50 312 0.0 1.7 0.00 0.01 0.01 59 1016.2
20260503034523 50 51 0.0 1.7 0.00 0.01 0.01 60 1016.1
20260503034007 50 51 0.0 1.7 0.00 0.01 0.01 61 1016.1
20260503033512 50 51 0.0 1.7 0.00 0.01 0.01 60 1016.1
20260503033026 50 51 0.0 1.7 0.00 0.01 0.01 59 1016.0
20260503032510 50 51 0.0 1.7 0.00 0.01 0.01 58 1016.0
20260503032013 51 51 0.0 1.7 0.00 0.01 0.01 57 1015.9
20260503031526 51 51 0.0 0.0 0.00 0.01 0.01 57 1015.9
20260503031009 51 51 0.0 0.0 0.00 0.01 0.01 57 1015.9
20260503030515 52 51 0.0 0.0 0.00 0.01 0.01 55 1015.8
20260503030030 52 51 0.0 0.0 0.00 0.01 0.01 54 1015.8
20260503025507 52 51 0.0 0.0 0.00 0.01 0.01 53 1015.8
20260503025006 53 51 0.0 0.0 0.00 0.01 0.01 54 1015.6
20260503024521 53 51 0.0 0.0 0.00 0.01 0.01 50 1015.6
20260503024010 54 51 0.0 0.0 0.00 0.01 0.01 49 1015.6
20260503023510 54 51 0.0 0.0 0.00 0.01 0.01 50 1015.6
20260503023003 54 51 0.0 3.5 0.00 0.01 0.01 48 1015.6
20260503022503 55 51 0.0 3.5 0.00 0.01 0.01 47 1015.6
20260503022007 55 46 0.0 1.7 0.00 0.01 0.01 46 1015.4
20260503021507 55 45 0.0 1.7 0.00 0.01 0.01 47 1015.4
20260503021006 55 45 0.0 1.7 0.00 0.01 0.01 46 1015.3
20260503020508 56 52 0.0 1.7 0.00 0.01 0.01 45 1015.2
20260503020010 56 339 0.0 0.9 0.00 0.01 0.01 44 1015.0
20260503015507 56 22 0.0 1.7 0.00 0.01 0.01 44 1015.0
20260503015005 56 28 0.0 1.7 0.00 0.01 0.01 44 1014.9
20260503014516 57 115 0.0 1.7 0.00 0.01 0.01 45 1014.7
20260503014006 57 119 0.0 2.6 0.00 0.01 0.01 43 1014.7
20260503013510 57 344 0.9 2.6 0.00 0.01 0.01 44 1014.5
20260503013030 57 271 0.0 2.6 0.00 0.01 0.01 44 1014.4